Regional Weather Roundup
Issued by NWS Cleveland, OH

Home | Current Version | Previous Version | Graphics & Text | Print | Product List | Glossary On
Versions: 1 2 3 4 5 6 7 8 9 10 11 12 13 14 15 16 17 18 19 20 21 22 23 24 25 26 27 28 29 30 31 32 33 34 35 36 37 38 39 40 41 42 43 44 45 46 47 48 49 50
627
ASUS41 KCLE 281810
RWRCLE
OHIO REGIONAL WEATHER ROUNDUP
NATIONAL WEATHER SERVICE CLEVELAND, OH
200 PM EDT THU JUL 28 2016

NOTE: "FAIR" INDICATES FEW OR NO CLOUDS BELOW 12,000 FEET WITH NO
SIGNIFICANT WEATHER AND/OR OBSTRUCTIONS TO VISIBILITY.

OHZ001>008-015>018-024>027-034-035-043-044-281900-
   NORTHWEST OHIO

CITY           SKY/WX    TMP DP  RH WIND       PRES   REMARKS
DEFIANCE       CLOUDY    84  68  58 E8        29.90S
FINDLAY        CLOUDY    87  62  43 MISG      29.88F
TOLEDO EXPRESS CLOUDY    83  70  64 N6        29.89F
TOLEDO EXEC    PTSUNNY   82  71  69 NE8       29.90F
LIMA           CLOUDY    85  66  53 CALM      29.89F
$$

OHZ009>014-019>023-028>033-038-089-281900-
   NORTHEAST OHIO

CITY           SKY/WX    TMP DP  RH WIND       PRES   REMARKS
CLE-HOPKINS    CLOUDY    85  59  41 N9        29.91F
CLE-LAKEFRONT  CLOUDY    82  67  60 N8        29.89S
CUY CO. ARPT   CLOUDY   N/A N/A N/A E7        29.91S
LORAIN-ELYRIA  CLOUDY    82  64  54 NE7       29.90F
ASHTABULA      CLOUDY    83  66  56 SE5       29.91F
AKRON-CANTON   CLOUDY    78  67  68 S9        29.93S
WOOSTER        CLOUDY    80  67  64 CALM      29.92F
MANSFIELD      CLOUDY    83  64  52 N6        29.92S
YOUNGSTOWN     CLOUDY    81  69  67 S7        29.91F
$$

OHZ042-051>053-060>062-070>072-077>081-281900-
  SOUTHWEST OHIO

CITY           SKY/WX    TMP DP  RH WIND       PRES   REMARKS
CINC-COVINGTON CLOUDY    77  71  82 CALM      29.91F
CINC-LUNKEN    CLOUDY    78  72  81 S6        29.90F
HAMILTON       CLOUDY    82  71  69 NW3       29.90F
DAYTON         CLOUDY    81  69  67 W6        29.91F
WRIGHT-PAT AFB NOT AVBL
DAYTON GENERAL CLOUDY    78  69  73 SW6       29.90F
WILMINGTON     LGT RAIN  75  72  90 E3        29.90F
$$

OHZ036-037-039>041-045>050-054>059-063>069-073>076-082>088-281900-
  CENTRAL AND SOUTHEAST OHIO

CITY           SKY/WX    TMP DP  RH WIND       PRES   REMARKS
COLUMBUS       CLOUDY    77  70  79 S6        29.90F
OSU AIRPORT    CLOUDY    77  71  82 S5        29.90F
BOLTON FIELD     N/A     75  72  88 SW5         N/A
RICKENBACK AFB LGT RAIN  76  71  85 SW6       29.90F
NEWARK         CLOUDY    78  71  79 S5        29.90F
MARION         CLOUDY    84  67  56 N5        29.90F
LANCASTER      LGT RAIN  74  71  91 S5        29.91F
ZANESVILLE     CLOUDY    75  69  81 CALM      29.92F
NEW PHILLY     CLOUDY    74  69  85 S7        29.94S
$$




USA.gov is the U.S. government's official web portal to all federal, state and local government web resources and services.